{"data":{"norad_id":67502,"epoch":"2026-09-19T19:49:11.070048Z","epoch_age_seconds":130495,"freshness":"FRESH","line1":"1 67502U 26012K   26262.82582257  .00014344  00000+0  52967-3 0  9995","line2":"2 67502  43.0046 297.9281 0001635 278.0034  82.0632 15.27586416 37451","mean_motion":15.27586416,"eccentricity":0.0001635,"inclination_deg":43.0046,"raan_deg":297.9281,"arg_perigee_deg":278.0034,"mean_anomaly_deg":82.0632,"bstar":0.00052967,"rev_number":3745,"period_min":94.26635278485,"perigee_km":481.90808350917,"apogee_km":484.15168508033,"semimajor_km":6861.1668842948,"source":"CELESTRAK","updated_at":"2026-09-20T09:00:43.558386Z"}}